Weather History for Verona, Italy

Change the Weather History Date:

Monday, September 23, 2013

  Actual Average Record
Temperature  
Mean Temperature 68 °F -  
Max Temperature 81 °F 68 °F 82 °F (2004)
Min Temperature 56 °F 49 °F 50 °F (2008)
Cooling Degree Days 4    
Growing Degree Days 18 (Base 50)    
Moisture  
Dew Point 58 °F    
Average Humidity 71    
Maximum Humidity 94    
Minimum Humidity 36    
Precipitation  
Precipitation 0.00 in 0.10 in - ()
Sea Level Pressure  
Sea Level Pressure 30.15 in    
Wind  
Wind Speed 4 mph ()    
Max Wind Speed 8 mph    
Max Gust Speed -    
Visibility 4.4 miles    
Events      
Averages and records for this station are not official NWS values.
T = Trace of Precipitation, MM = Missing Value Source: Averaged Metar Reports

Daily Weather History Graph

Daily Weather History Graph

Search for Another Location

Airport:

Trip Planner

Search our weather history database for the weather conditions in past years. The results will help you decide how hot, cold, wet, or windy it might be!

Date:

Astronomy

Sep. 23, 2013 Rise Set
Actual Time 7:04 AM CEST 7:12 PM CEST
Civil Twilight 6:35 AM CEST 7:41 PM CEST
Nautical Twilight 6:00 AM CEST 8:16 PM CEST
Astronomical Twilight 5:25 AM CEST 8:51 PM CEST
Moon 9:18 PM CEST (9/23) 11:20 AM CEST (9/23)
Length of Visible Light 13h 06m
Length of Day
12h 07m
Waning Gibbous, 83% of the Moon is Illuminated
Sep 23
Waning Gibbous
Sep 27
Last Quarter
Oct 5
New
Oct 12
First Quarter
Oct 19
Full

Hourly Weather History & Observations

Time (CEST) Temp. Heat Index Dew Point Humidity Pressure Visibility Wind Dir Wind Speed Gust Speed Precip Events Conditions
12:15 AM 62.6 °F - 55.4 °F 77% 30.21 in - NE 5.8 mph - N/A   Clear
12:45 AM 62.6 °F - 55.4 °F 77% 30.21 in - NNE 3.5 mph - N/A   Clear
1:15 AM 62.6 °F - 55.4 °F 77% 30.21 in - NNE 2.3 mph - N/A   Clear
1:45 AM 60.8 °F - 57.2 °F 88% 30.21 in - NNW 5.8 mph - N/A   Clear
2:00 AM 61 °F - 58 °F 85% 30.24 in 6 mi NNW 5.8 mph - -  
2:15 AM 60.8 °F - 57.2 °F 88% 30.21 in - North 4.6 mph - N/A   Clear
3:45 AM 59.0 °F - 55.4 °F 88% 30.21 in - NNW 3.5 mph - N/A   Clear
4:15 AM 59.0 °F - 55.4 °F 88% 30.21 in - NNW 2.3 mph - N/A   Clear
4:45 AM 57.2 °F - 55.4 °F 94% 30.21 in - NNW 3.5 mph - N/A   Clear
5:00 AM 58 °F - 55 °F 86% 30.23 in 6 mi NNW 3.5 mph - -  
5:15 AM 57.2 °F - 55.4 °F 94% 30.21 in - NNW 1.2 mph - N/A   Clear
5:45 AM 57.2 °F - 53.6 °F 88% 30.21 in - NNW 3.5 mph - N/A   Clear
6:15 AM 57.2 °F - 53.6 °F 88% 30.21 in - NNW 3.5 mph - N/A   Clear
6:45 AM 57.2 °F - 53.6 °F 88% 30.21 in - NNW 2.3 mph - N/A   Clear
7:15 AM 57.2 °F - 53.6 °F 88% 30.21 in - NNW 4.6 mph - N/A   Clear
7:45 AM 57.2 °F - 55.4 °F 94% 30.21 in - NW 2.3 mph - N/A   Clear
8:00 AM 58 °F - 55 °F 85% 30.22 in 6 mi NW 2.3 mph - -  
8:15 AM 57.2 °F - 53.6 °F 88% 30.21 in - NNW 1.2 mph - N/A   Clear
8:45 AM 62.6 °F - 57.2 °F 82% 30.21 in - Calm Calm - N/A   Clear
9:15 AM 64.4 °F - 57.2 °F 77% 30.21 in - SSW 1.2 mph - N/A   Clear
9:45 AM 66.2 °F - 55.4 °F 68% 30.21 in - SW 2.3 mph - N/A   Clear
10:15 AM 68.0 °F - 55.4 °F 64% 30.21 in - South 2.3 mph - N/A   Clear
10:45 AM 69.8 °F - 55.4 °F 60% 30.21 in - South 2.3 mph - N/A   Clear
11:00 AM 69 °F - 54 °F 50% 30.22 in 6 mi South 2.3 mph - -  
11:15 AM 71.6 °F - 57.2 °F 60% 30.21 in - South 4.6 mph - N/A   Clear
11:45 AM 73.4 °F - 57.2 °F 57% 30.18 in - SSE 3.5 mph - N/A   Clear
12:15 PM 75.2 °F - 57.2 °F 53% 30.18 in - South 4.6 mph - N/A   Clear
12:45 PM 75.2 °F - 59.0 °F 57% 30.18 in - WSW 5.8 mph - N/A   Clear
1:15 PM 77.0 °F - 59.0 °F 54% 30.18 in - West 5.8 mph - N/A   Clear
1:45 PM 78.8 °F - 60.8 °F 54% 30.15 in - West 5.8 mph - N/A   Clear
2:00 PM 78 °F - 60 °F 45% 30.17 in 6 mi West 5.8 mph - -  
2:15 PM 78.8 °F - 60.8 °F 54% 30.15 in - WSW 6.9 mph - N/A   Clear
2:45 PM 78.8 °F - 59.0 °F 51% 30.15 in - WSW 6.9 mph - N/A   Clear
3:15 PM 78.8 °F - 59.0 °F 51% 30.15 in - WSW 6.9 mph - N/A   Clear
3:45 PM 80.6 °F 81.1 °F 59.0 °F 48% 30.12 in - West 8.1 mph - N/A   Clear
4:15 PM 80.6 °F 81.1 °F 59.0 °F 48% 30.09 in - SW 6.9 mph - N/A   Clear
4:45 PM 80.6 °F 81.1 °F 59.0 °F 48% 30.09 in - WSW 6.9 mph - N/A   Clear
5:00 PM 81 °F - 58 °F 36% 30.10 in 6 mi WSW 6.9 mph - -  
5:15 PM 80.6 °F 81.1 °F 59.0 °F 48% 30.09 in - WSW 5.8 mph - N/A   Clear
5:45 PM 80.6 °F 81.1 °F 59.0 °F 48% 30.09 in - WSW 4.6 mph - N/A   Clear
6:15 PM 78.8 °F - 59.0 °F 51% 30.06 in - SW 4.6 mph - N/A   Clear
6:45 PM 77.0 °F - 60.8 °F 57% 30.06 in - SSW 4.6 mph - N/A   Clear
7:15 PM 75.2 °F - 60.8 °F 61% 30.06 in 5.0 mi SW 4.6 mph - N/A   Unknown
7:45 PM 71.6 °F - 60.8 °F 69% 30.06 in 3.7 mi WSW 2.3 mph - N/A   Unknown
8:00 PM 72 °F - 61 °F 59% 30.06 in 4 mi WSW 2.3 mph - -   Mist
8:15 PM 69.8 °F - 60.8 °F 73% 30.06 in 3.7 mi WSW 3.5 mph - N/A   Unknown
8:45 PM 68.0 °F - 60.8 °F 78% 30.06 in 3.7 mi WSW 2.3 mph - N/A   Unknown
9:15 PM 66.2 °F - 60.8 °F 83% 30.06 in 3.7 mi NNW 2.3 mph - N/A   Unknown
9:45 PM 66.2 °F - 60.8 °F 83% 30.06 in 3.7 mi North 3.5 mph - N/A   Unknown
10:15 PM 64.4 °F - 60.8 °F 88% 30.06 in 3.7 mi North 5.8 mph - N/A   Unknown
10:45 PM 64.4 °F - 60.8 °F 88% 30.06 in 3.1 mi North 4.6 mph - N/A   Mist
11:00 PM 65 °F - 61 °F 82% 30.09 in 3 mi North 4.6 mph - -   Mist
11:15 PM 62.6 °F - 59.0 °F 88% 30.06 in 3.1 mi NNW 5.8 mph - N/A   Mist
11:45 PM 62.6 °F - 59.0 °F 88% 30.06 in 3.1 mi NNW 6.9 mph - N/A   Mist